Regional Weather Roundup
Issued by NWS Albany, NY

Home | Current Version | Previous Version | Text Only | Print | Product List | Glossary On
Versions: 1 2 3 4 5 6 7 8 9 10 11 12 13 14 15 16 17 18 19 20 21 22 23 24 25 26 27
000
ASUS41 KALY 241110
RWRALY

NEW YORK STATE HOURLY WEATHER ROUNDUP
NATIONAL WEATHER SERVICE ALBANY NY
700 AM EDT SUN JUL 24 2016

NOTE: "FAIR" INDICATES FEW OR NO CLOUDS BELOW 12,000 FEET WITH NO
SIGNIFICANT WEATHER AND/OR NO OBSTRUCTIONS TO VISIBILITY.

NYZ032-033-038>043-046>054-057>066-NYZ062>081-082-084-241200-
EAST


CITY           SKY/WX    TMP DP  RH WIND       PRES   REMARKS
ALBANY         MOSUNNY   64  61  90 CALM      29.99R
GLENS FALLS    FOG       63  61  93 CALM      30.00R VSB 1
POUGHKEEPSIE   SUNNY     66  60  81 CALM      29.98R
NEWBURGH       SUNNY     66  64  94 CALM      30.01R
MONTGOMERY     MOSUNNY   64  61  90 CALM      30.00R
WHITE PLAINS   SUNNY     72  61  68 W7        29.98R
ISLIP          MOSUNNY   75  61  61 NW5       29.96R
NEW YORK CITY  MOSUNNY   78  62  57 NE3       29.97R
CENTRAL PARK   SUNNY     77  61  57 NE5       30.01R
$$

NYZ005>009-017-018-044>046-055-056-241200-
CENTRAL


CITY           SKY/WX    TMP DP  RH WIND       PRES   REMARKS
FULTON         CLOUDY    66  62  87 CALM      30.03R
SYRACUSE       NOT AVBL
ROME           PTSUNNY   60  59  96 CALM      30.03R
ELMIRA         MOSUNNY   62  57  83 SW3       30.05R
BINGHAMTON     SUNNY     69  59  70 CALM      30.06R
MONTICELLO     SUNNY     64  59  82 NW7       30.05S
$$

NYZ026>034-041>043-087-241200-
NORTH


CITY           SKY/WX    TMP DP  RH WIND       PRES   REMARKS
WATERTOWN      PTSUNNY   60  58  92 CALM      30.03R
FORT DRUM      NOT AVBL
MASSENA        SUNNY     60  57  89 CALM      30.04R
SARANAC LAKE   SUNNY     53  51  93 CALM      30.03R
PLATTSBURGH    SUNNY     62  54  74 W5        30.01R
$$

NYZ001>004-010>016-019>021-085-241200-
WEST


CITY           SKY/WX    TMP DP  RH WIND       PRES   REMARKS
NIAGARA FALLS  MOCLDY    69  60  73 E3        30.01S
BUFFALO        MOCLDY    67  61  81 CALM      30.02S
DUNKIRK        CLOUDY    65  63  93 SW5       30.01S
JAMESTOWN      MOCLDY    61  57  88 S6        30.06S
WELLSVILLE     CLEAR     63  58  83 CALM      30.10R
ROCHESTER      PTSUNNY   67  61  81 CALM      30.04R
PENN YAN       PTSUNNY   66  61  84 SW3       30.05R
$$

             KEY
       WCI = WIND CHILL INDEX
       VSB = VISIBILITY
       HX  = HEAT INDEX
$$




USA.gov is the U.S. government's official web portal to all federal, state and local government web resources and services.